Location: Strohbehn Observatory
(42.4649°N, 93.8239°W)
Time: 06:39:15
(UTC-05:00)

SL-16 R/B - Visible Passes

Search period start: 02 September 2014 00:00
Search period end: 12 September 2014 00:00
Orbit: 842 x 847 km, 71.0° (Epoch: 01 September)

Date Brightness Start Highest point End Pass type
(mag) Time Alt. Az. Time Alt. Az. Time Alt. Az.
02 Sep 3.2 03:32:21 38° ESE 03:32:36 38° ESE 03:37:47 10° NE visible
02 Sep 3.1 05:14:15 23° W 05:16:44 33° NW 05:21:50 10° N visible
03 Sep 3.3 03:18:52 36° E 03:18:52 36° E 03:23:36 10° NE visible
03 Sep 3.0 05:00:46 28° W 05:02:33 34° WNW 05:07:42 10° N visible
04 Sep 3.5 03:05:21 33° E 03:05:21 33° E 03:09:25 10° NE visible
04 Sep 2.9 04:47:14 32° W 04:48:23 35° WNW 04:53:34 10° N visible
05 Sep 3.8 02:51:47 29° ENE 02:51:47 29° ENE 02:55:13 10° NE visible
05 Sep 2.9 04:33:40 36° WNW 04:34:13 36° WNW 04:39:26 10° N visible
06 Sep 4.0 02:38:11 25° ENE 02:38:11 25° ENE 02:41:02 10° NE visible
06 Sep 2.9 04:20:04 38° WNW 04:20:04 38° WNW 04:25:18 10° N visible
07 Sep 4.3 02:24:33 21° ENE 02:24:33 21° ENE 02:26:50 10° NE visible
07 Sep 3.0 04:06:26 38° NW 04:06:26 38° NW 04:11:10 10° N visible
08 Sep 4.5 02:10:54 18° NE 02:10:54 18° NE 02:12:39 10° NE visible
08 Sep 3.2 03:52:47 37° NNW 03:52:47 37° NNW 03:57:02 10° NNE visible
09 Sep 4.6 01:57:13 16° NE 01:57:13 16° NE 01:58:27 10° NE visible
09 Sep 3.4 03:39:06 34° NNW 03:39:06 34° NNW 03:42:54 10° NNE visible
10 Sep 4.8 01:43:30 13° NE 01:43:30 13° NE 01:44:15 10° NE visible
10 Sep 3.6 03:25:23 31° NNW 03:25:23 31° NNW 03:28:46 10° NNE visible
11 Sep 4.9 01:29:46 11° NE 01:29:46 11° NE 01:30:03 10° NE visible
11 Sep 3.8 03:11:39 29° N 03:11:39 29° N 03:14:38 10° NNE visible
